Find DubaiSat-1

NORAD ID: 35682 Int'l Des: 2009-041 Owner: EIAST Country: UAE operational
LEOCIRCULARRETROGRADESSO

リアルタイム位置

3D地球を読み込み中...

DubaiSat-1について

説明を読み込み中...

次回通過

Passes for default location (London). Set your location on the main map for personalized predictions.

高度履歴

Loading altitude history...

軌道要素

1 35682U 09041B 26120.87665104 .00001236 00000-0 19104-3 0 9996
2 35682 97.9977 254.6737 0009613 216.6992 143.3560 14.75037606898121
Epoch: Apr 30, 2026 • Age: 10 hours

現在のステータス

高度 656.9 km
速度 7.53 km/s
衛星直下点 62.73°N, 121.58°E
打ち上げ日 Jul 29, 2009
運用期間 16.7 years
タイプ other

技術仕様

分類 Payload
質量 190.00 kg
乾燥質量 190.00 kg
総質量 190.00 kg
長さ 1.30 m
直径 1.20 m
スパン 3.00 m
形状 Hex Cyl + 3 Pan
製造者 SATREC
バスタイプ Satrec
フェーズステータス In Orbit
所有者/国 EIAST/UAE

Most Searched